Tracking 20748 objects as of 4-Jun-2020
HD Live streaming from Space Station
objects crossing your sky now
Track the most recent launched group of Starlink satellites

SBS 3

Track SBS 3 now!
SBS 3 is classified as:


NORAD ID: 13651
Int'l Code: 1982-110B
Perigee: 35,841.0 km
Apogee: 35,941.0 km
Inclination: 14.7 °
Period: 1,441.1 minutes
Semi major axis: 42262 km
RCS: 15.8489 m2 (large)
Launch date: November 11, 1982
Source: United States (US)
Launch site: AIR FORCE EASTERN TEST RANGE (AFETR)
aabbcc
Your satellite tracking list
Your tracking list is empty




NASA's NSSDC Master Catalog

Two Line Element Set (TLE):
1 13651U 82110B   20155.47175269 -.00000270  00000-0  00000+0 0  9991
2 13651  14.6906 351.8872 0011826  53.4454 307.7242  0.99925783109918
Source of the keplerian elements: AFSPC